Zurück zum Katalog

STARLINK-5701

AktivKommunikationVLEO
NORAD 55487·PAYLOAD·🇺🇸 United States

Gestartet Feb 2, 2023 von Cape Canaveral Space Force Station

Loading…

Nächste Überflüge (nächste 24 Stunden)

TLE

AktuellSource: CelesTrak SupGP

Epoche: Sep 15, 2026, 01:51 UTC

1 55487C 23015AQ  26258.07756944  .00236510  00000+0  54454-2 0  2583
2 55487  43.0051 349.3141 0001826 261.8553 314.0298 15.41650892    15

Verfolge STARLINK-5701 in Echtzeit mit AllMySat

Download on the App Store